Regional Weather Roundup
Issued by NWS Bismarck, ND

Home | Current Version | Previous Version | Text Only | Print | Product List | Glossary On
Versions: 1 2 3 4 5 6 7 8 9 10 11 12 13 14 15 16 17 18 19 20 21 22 23 24 25 26 27 28 29 30 31 32 33 34 35 36 37 38 39 40 41 42 43 44 45 46 47 48 49 50
000
ASUS43 KBIS 090610
RWRBIS

NWR BROADCAST TEXT
NATIONAL WEATHER SERVICE BISMARCK ND
1200 AM CST FRI DEC 09 2016

NOTE: "FAIR" INDICATES FEW OR NO CLOUDS BELOW 12,000 FEET WITH NO
SIGNIFICANT WEATHER AND/OR OBSTRUCTIONS TO VISIBILITY.


CITY           SKY/WX    TMP DP  RH WIND       PRES   REMARKS
WILLISTON      CLOUDY   -17 -23  73 CALM      30.58R
MINOT          CLOUDY    -6 -11  79 W10       30.55F WCI -24
MINOT AFB      CLOUDY    -9 -15  77 NW12      30.55F WCI -29
BISMARCK       CLOUDY    -3  -8  79 W5        30.60S WCI -13
DICKINSON      CLOUDY   -11 -14  86 CALM      30.46F
GARRISON         N/A    -11 -16  78 N9        30.55S WCI -29
HETTINGER ARPT CLOUDY   -20 -24  82 CALM      30.47F
JAMESTOWN      CLEAR     -5 -10  79 W9        30.56S WCI -22
CARRINGTON     CLOUDY    -4  -9  77 W10       30.57F WCI -21
HAZEN          CLOUDY    -2  -9  71 S3        30.59F
RUGBY            N/A     -9 -13  84 W7        30.56S WCI -24
STANLEY        FAIR     -17 -20  83 NW6       30.53S WCI -31
TIOGA          FAIR     -13 -18  77 W5        30.53S WCI -25
WATFORD CITY   FAIR     -18 -26  69 SW5       30.56R WCI -31
$$

CITY           SKY/WX    TMP DP  RH WIND       PRES   REMARKS
GRAND FORKS    FLURRIES   8   1  73 NW9       30.58S WCI  -5
GRAND FORKS AF CLOUDY     7   0  72 NW8       30.58S WCI  -6
DEVILS LAKE    FLURRIES  -2  -5  87 NW9       30.55S WCI -18
FARGO          CLOUDY     8   1  73 W7        30.59S WCI  -3
CANDO          MOCLDY    -2  -8  78 NW7       30.58R WCI -16
CAVALIER       FLURRIES   9   1  72 W10       30.57F WCI  -6
GRAFTON        CLOUDY     9   5  85 NW7       30.60S WCI  -3
GWINNER        FAIR       1  -4  78 W12       30.59S WCI -15
LANGDON        CLOUDY     3  -2  78 NW13      30.51S WCI -14
ROLLA          FAIR      -8 -11  84 NW8       30.51F WCI -23
WALHALLA       FLURRIES   7   7 100 NW13      30.57S WCI  -9
$$

CITY           SKY/WX    TMP DP  RH WIND       PRES   REMARKS
ABERDEEN       CLEAR     -7 -12  79 SW5       30.63S WCI -18
MOBRIDGE       CLOUDY    -2  -7  79 NW7       30.56R WCI -15
BUFFALO          N/A     -8 -12  83 NE7       30.32F WCI -23
RAPID CITY     CLOUDY     0  -7  72 CALM      30.39F
GLASGOW        MOCLDY    -5 -10  79 NE8       30.50S WCI -20
SIDNEY         CLOUDY   -13 -18  78 NW5       30.57S WCI -25
WOLF POINT     CLOUDY   -10 -18  67 E5        30.57S WCI -22
GLENDIVE       CLOUDY   -11 -16  78 NE5       30.50S WCI -23
MILES CITY     CLOUDY    -5 -10  79 NE9       30.43S WCI -22
BAKER          CLOUDY   -14 -18  82 SE7       30.43S WCI -30
$$

CITY           SKY/WX    TMP DP  RH WIND       PRES   REMARKS
BILLINGS       CLOUDY     2  -4  76 NE8       30.26S WCI -12
GREAT FALLS    CLOUDY    -3  -8  79 NE8       30.30S WCI -18
REGINA         CLEAR    -13 -17  84 N6        30.57S WCI -27
ESTEVAN        CLEAR    -18 -22  83 W8        30.55S WCI -37
$$




USA.gov is the U.S. government's official web portal to all federal, state and local government web resources and services.